Preview of NWS' New Version of Forecast
This preview is not operational and should not be used for support decisions.

Regional Weather Roundup (RWR)

Issued by National Weather Service (NWS)

                            
000
ASCA42 TJSJ 181910
RWRPR 
PUERTO RICO/U.S. VIRGIN ISLANDS HOURLY WEATHER ROUNDUP
NATIONAL WEATHER SERVICE SAN JUAN PR
300 PM AST THU APR 18 2019

PRZ001>002-007>008-010-182000-
PUERTO RICO
  
CITY           SKY/WX    TMP DP  RH WIND       PRES   REMARKS
SAN JUAN LMM   MOSUNNY   84  72  65 NE17G25   29.98F                  
AGUADILLA      SUNNY     82  72  69 E20G26    29.98F                  
CEIBA          SUNNY     88  70  55 MISG      30.00F HX  92           
$$

VIZ001>002-182000-
U.S. VIRGIN ISLANDS
  
CITY           SKY/WX    TMP DP  RH WIND       PRES   REMARKS
CHARLOTTE AMA  SUNNY     84  70  61 SE13      29.97F                  
CHRISTIANSTED  MOSUNNY   86  68  54 E17G25    29.98F                  
$$

HOURLY WEATHER ROUNDUP FOR THE NEWS MEDIA
  
CITY           SKY/WX    TMP DP  RH WIND       PRES   REMARKS
ORLANDO        FAIR      88  60  38 S10       29.97F                  
NEW YORK       CLOUDY    58  55  90 SE20G26   30.01F                  
NEWARK         CLOUDY    57  53  86 E12       29.98F                  
CHICAGO        LGT RAIN  50  47  89 NW12      29.64S                  
HARTFORD       CLOUDY    50  42  74 SE16G26   30.16F                  
BOSTON         CLOUDY    52  39  61 S17       30.16F                  
DALLAS         CLOUDY    63  53  70 N16G23    29.82R                  
PHILADELPHIA   PTSUNNY   78  57  48 SW15      29.91F                  
LOS ANGELES    PTSUNNY   69  52  54 SW14      30.10S                  
WASHINGTON DC  PTSUNNY   73  54  51 SW9       29.91F